Regional Weather Roundup
Issued by NWS

Home | Current Version | Previous Version | Text Only | Print | Product List | Glossary Off
Versions: 1 2 3 4 5 6 7 8 9 10 11 12 13 14 15 16 17 18 19 20 21 22 23 24 25 26 27 28 29 30 31 32 33 34 35 36 37 38 39 40 41 42 43 44 45 46 47 48 49 50

000
ASUS43 KDTX 111610
RWRMI
MICHIGAN HOURLY REGIONAL WEATHER ROUNDUP
NATIONAL WEATHER SERVICE DETROIT/PONTIAC MI
1200 PM EDT FRI JUL 11 2014

NOTE: "FAIR" INDICATES FEW OR NO CLOUDS BELOW 12,000 FEET WITH NO
SIGNIFICANT WEATHER AND/OR OBSTRUCTION TO VISIBILITY.

MIZ047>049-052>055-059>063-066>070-074>076-081>083-111700-
SOUTHEAST LOWER MICHIGAN

CITY           SKY/WX    TMP DP  RH WIND       PRES   REMARKS
ADRIAN         MOSUNNY   74  54  49 CALM      30.26S
ALMA           MOSUNNY   74  51  44 S5        30.24S
ANN ARBOR      PTSUNNY   77  58  51 VRB6      30.25S
BAD AXE        SUNNY     73  51  47 S8        30.26S
CARO           MOSUNNY   75  57  53 CALM      30.24F
DETROIT CITY   SUNNY     76  57  51 CALM      30.25S
DETROIT        MOSUNNY   77  57  50 VRB3      30.25S
FLINT          MOSUNNY   76  56  49 S6        30.24F
GROSSE ILE     SUNNY     73  59  60 S7        30.25R
HILLSDALE      MOSUNNY   75  58  54 CALM      30.26S
HOWELL         MOSUNNY   73  56  54 S5        30.24F

CITY           SKY/WX    TMP DP  RH WIND       PRES   REMARKS
JACKSON        SUNNY     76  57  51 VRB3      30.25S
LAMBERTVILLE   SUNNY     77  55  47 E6        30.26R
LANSING        SUNNY     74  55  51 VRB3      30.24F
LAPEER         PTSUNNY   73  56  55 W3        30.25F
MASON          MOSUNNY   73  56  53 CALM      30.24F
MONROE         SUNNY     75  57  53 SE3       30.24R
MT. CLEMENS    MOSUNNY   74  57  55 E5        30.25R
PONTIAC        MOSUNNY   75  56  51 NW5       30.25S
PORT HOPE        N/A     69  61  75 E12       30.24S
PORT HURON     MOSUNNY   73  57  56 CALM      30.26S
TRI CITIES     SUNNY     75  52  44 VRB3      30.24F
TROY           MOSUNNY   76  56  49 CALM      30.26S
SAGINAW HB     SUNNY     75  55  50 SE3       30.23F
$$
MIZ043>046-050>051-056>058-064>065-071>073-077>080-111700-
SOUTHWEST LOWER MICHIGAN

CITY           SKY/WX    TMP DP  RH WIND       PRES   REMARKS
BATTLE CREEK   SUNNY     74  56  53 CALM      30.24F
BENTON HARBOR  SUNNY     75  55  49 VRB7      30.22S
BIG RAPIDS     MOSUNNY   74  54  49 S7        30.22S
COLDWATER      MOSUNNY   75  59  57 CALM      30.24F
FREMONT        FAIR      75  54  47 S6        30.21F
HOLLAND        SUNNY     78  58  49 SW6       30.23S
GRAND RAPIDS   PTSUNNY   76  57  51 VRB3      30.23S
IONIA          FAIR      73  53  49 CALM      30.23S
KALAMAZOO      MOSUNNY   75  53  46 SW6       30.23F
LUDINGTON      PTSUNNY   74  63  66 SW10      30.21R
MARSHALL       MOSUNNY   73  57  57 S6        30.23F
MOUNT PLEASANT MOSUNNY   75  55  50 SE7       30.22S
MUSKEGON       PTSUNNY   76  54  46 S12       30.22R
SOUTH HAVEN    SUNNY     75  57  53 SW5       30.22S
$$
MIZ016>042-111700-
NORTHERN LOWER MICHIGAN

CITY           SKY/WX    TMP DP  RH WIND       PRES   REMARKS
ALPENA         SUNNY     76  50  40 W6        30.20F
BEAVER ISLAND  CLOUDY    71  51  47 SW12G20   30.15F
BELLAIRE       CLOUDY    74  54  49 S7        30.18S
CADILLAC       PTSUNNY   74  58  56 SW8       30.21S
CHARLEVOIX     PTSUNNY   74  54  49 S9        30.20S
FRANKFORT      CLOUDY    73  48  41 S8        30.18S
GAYLORD        MOSUNNY   73  55  53 S8        30.21F
GRAYLING       MOSUNNY   75  53  45 SW3       30.22S
HARBOR SPRINGS PTSUNNY   73  56  55 CALM      30.16F
HOUGHTON LAKE  SUNNY     74  54  49 SW7       30.23S
MANISTEE       CLOUDY    70  57  64 S6        30.20S
OSCODA         SUNNY     77  48  35 SW3       30.21F
PELLSTON       PTSUNNY   74  55  51 S5        30.18F
ROGERS CITY    MOSUNNY   75  58  55 S5        30.20S
TRAVERSE CITY  CLOUDY    77  53  43 S7        30.17F
$$
MIZ007>008-015-111700-
EASTERN UPPER MICHIGAN

CITY           SKY/WX    TMP DP  RH WIND       PRES   REMARKS
KINROSS        PTSUNNY   72  54  53 S6        30.16F
MACKINAC ISLAN PTSUNNY   70  52  53 CALM      30.17S
NEWBERRY       CLOUDY    64  54  69 S15G21    30.14S
S. S. MARIE    PTSUNNY   73  53  49 S10       30.15F
MUNISING         N/A     72  57  59 S8        30.08F
$$
MIZ004>006-011>014-085-111700-
CENTRAL UPPER MICHIGAN

CITY           SKY/WX    TMP DP  RH WIND       PRES   REMARKS
MANISTIQUE     CLOUDY    60  52  75 S12G17    30.14S
ESCANABA       PTSUNNY   68  57  68 S10G18    30.11S
MENOMINEE      PTSUNNY   73  63  68 SW9       30.11S
SAWYER-GWINN   SUNNY     68  59  73 S8        30.09F
$$
MIZ001>003-009>011-084-111700-
WESTERN UPPER MICHIGAN

CITY           SKY/WX    TMP DP  RH WIND       PRES   REMARKS
IRON MOUNTAIN  CLOUDY    72  59  63 SW10      30.08F
HOUGHTON       CLOUDY    68  61  78 S6        30.01S
COPPER HARBOR    N/A     68  60  75 W7        30.01S
$$

ABBREVIATIONS USED IN REMARKS
   TC - TEMPERATURE IN CELSIUS
  WCI - WIND CHILL INDEX
   HX - HEAT INDEX
  VSB - VISIBILITY



USA.gov is the U.S. government's official web portal to all federal, state and local government web resources and services.